H1 CPF 2 NER 2023 12 14 9 348 01 glonass116 H2 0907001 9116 36111 2023 12 14 0 0 0 2023 12 17 23 45 0 900 1 1 0 0 0 1 H9 10 0 60292 0.00000 0 -11047669.837 7068557.171 21877673.104 10 0 60292 900.00000 0 -13560189.155 6306479.739 20664500.062 10 0 60292 1800.00000 0 -15952618.953 5771268.241 19050007.113 10 0 60292 2700.00000 0 -18159697.436 5450953.881 17065550.650 10 0 60292 3600.00000 0 -20121296.851 5322071.827 14749669.460 10 0 60292 4500.00000 0 -21784767.510 5350845.863 12147337.772 10 0 60292 5400.00000 0 -23106984.240 5494817.636 9309093.095 10 0 60292 6300.00000 0 -24056010.212 5704851.216 6290055.435 10 0 60292 7200.00000 0 -24612308.849 5927427.775 3148856.842 10 0 60292 8100.00000 0 -24769453.420 6107132.945 -53497.935 10 0 60292 9000.00000 0 -24534304.882 6189231.109 -3254817.418 10 0 60292 9900.00000 0 -23926650.867 6122217.198 -6392932.618 10 0 60292 10800.00000 0 -22978321.331 5860237.444 -9406905.669 10 0 60292 11700.00000 0 -21731818.405 5365276.033 -12238214.056 10 0 60292 12600.00000 0 -20238518.364 4609014.580 -14831887.134 10 0 60292 13500.00000 0 -18556521.514 3574285.116 -17137572.705 10 0 60292 14400.00000 0 -16748240.419 2256054.473 -19110513.022 10 0 60292 15300.00000 0 -14877827.674 661897.706 -20712411.429 10 0 60292 16200.00000 0 -13008550.846 -1188060.384 -21912173.209 10 0 60292 17100.00000 0 -11200224.147 -3261734.336 -22686506.704 10 0 60292 18000.00000 0 -9506803.789 -5516174.248 -23020373.533 10 0 60292 18900.00000 0 -7974246.875 -7899124.606 -22907279.548 10 0 60292 19800.00000 0 -6638722.538 -10350981.947 -22349401.186 10 0 60292 20700.00000 0 -5525249.270 -12807070.975 -21357544.814 10 0 60292 21600.00000 0 -4646814.558 -15200145.417 -19950939.731 10 0 60292 22500.00000 0 -4004012.855 -17463010.479 -18156868.498 10 0 60292 23400.00000 0 -3585216.265 -19531158.381 -16010141.278 10 0 60292 24300.00000 0 -3367270.107 -21345307.726 -13552423.813 10 0 60292 25200.00000 0 -3316683.447 -22853741.091 -10831431.513 10 0 60292 26100.00000 0 -3391263.950 -24014343.380 -7900004.825 10 0 60292 27000.00000 0 -3542127.496 -24796255.725 -4815083.565 10 0 60292 27900.00000 0 -3715997.170 -25181075.611 -1636599.982 10 0 60292 28800.00000 0 -3857693.770 -25163552.858 1573687.708 10 0 60292 29700.00000 0 -3912711.799 -24751752.193 4753398.362 10 0 60292 30600.00000 0 -3829771.116 -23966675.650 7840743.627 10 0 60292 31500.00000 0 -3563235.412 -22841360.809 10775732.119 10 0 60292 32400.00000 0 -3075294.295 -21419493.002 13501338.101 10 0 60292 33300.00000 0 -2337815.786 -19753590.090 15964611.534 10 0 60292 34200.00000 0 -1333790.057 -17902836.360 18117707.597 10 0 60292 35100.00000 0 -58302.575 -15930656.674 19918815.640 10 0 60292 36000.00000 0 1481005.312 -13902132.696 21332969.664 10 0 60292 36900.00000 0 3264008.651 -11881369.399 22332724.896 10 0 60292 37800.00000 0 5258701.995 -9928921.785 22898687.767 10 0 60292 38700.00000 0 7422309.103 -8099388.924 23019889.514 10 0 60292 39600.00000 0 9702853.801 -6439275.197 22693996.579 10 0 60292 40500.00000 0 12041127.378 -4985207.196 21927354.094 10 0 60292 41400.00000 0 14372971.426 -3762579.739 20734861.769 10 0 60292 42300.00000 0 16631781.706 -2784686.538 19139684.627 10 0 60292 43200.00000 0 18751129.471 -2052370.695 17172804.009 10 0 60292 44100.00000 0 20667391.546 -1554208.543 14872417.292 10 0 60292 45000.00000 0 22322279.915 -1267218.049 12283197.579 10 0 60292 45900.00000 0 23665165.531 -1158061.007 9455427.418 10 0 60292 46800.00000 0 24655099.489 -1184687.503 6444023.026 10 0 60292 47700.00000 0 25262447.083 -1298352.545 3307467.859 10 0 60292 48600.00000 0 25470066.412 -1445918.966 106676.213 10 0 60292 49500.00000 0 25273982.209 -1572348.619 -3096190.931 10 0 60292 50400.00000 0 24683526.646 -1623275.864 -6238934.492 10 0 60292 51300.00000 0 23720941.370 -1547553.833 -9260526.503 10 0 60292 52200.00000 0 22420457.561 -1299665.144 -12102296.119 10 0 60292 53100.00000 0 20826892.806 -841894.466 -14709069.059 10 0 60292 54000.00000 0 18993823.758 -146170.484 -17030238.242 10 0 60292 54900.00000 0 16981411.254 804501.237 -19020744.820 10 0 60292 55800.00000 0 14853968.964 2015075.629 -20641950.750 10 0 60292 56700.00000 0 12677377.106 3478017.180 -21862386.332 10 0 60292 57600.00000 0 10516449.001 5173380.565 -22658358.637 10 0 60292 58500.00000 0 8432359.918 7069420.615 -23014409.476 10 0 60292 59400.00000 0 6480244.864 9123707.184 -22923614.458 10 0 60292 60300.00000 0 4707064.673 11284699.609 -22387717.599 10 0 60292 61200.00000 0 3149828.538 13493716.143 -21417098.971 10 0 60292 62100.00000 0 1834246.188 15687217.334 -20030575.891 10 0 60292 63000.00000 0 773865.004 17799309.113 -18255041.182 10 0 60292 63900.00000 0 -30272.773 19764361.937 -16124945.044 10 0 60292 64800.00000 0 -589439.306 21519637.265 -13681630.030 10 0 60292 65700.00000 0 -926505.769 23007812.012 -10972531.435 10 0 60292 66600.00000 0 -1074733.140 24179295.527 -8050258.175 10 0 60292 67500.00000 0 -1076120.866 24994242.027 -4971571.683 10 0 60292 68400.00000 0 -979383.805 25424173.966 -1796282.537 10 0 60292 69300.00000 0 -837643.624 25453147.921 1413913.589 10 0 60292 70200.00000 0 -705933.052 25078413.761 4596637.677 10 0 60292 71100.00000 0 -638619.398 24310539.181 7690043.034 10 0 60292 72000.00000 0 -686857.205 23172994.167 10634020.592 10 0 60292 72900.00000 0 -896178.712 21701212.850 13371369.918 10 0 60292 73800.00000 0 -1304324.883 19941172.108 15848912.714 10 0 60292 74700.00000 0 -1939409.524 17947546.719 18018526.841 10 0 60292 75600.00000 0 -2818494.823 15781518.454 19838080.735 10 0 60292 76500.00000 0 -3946639.172 13508330.898 21272250.171 10 0 60292 77400.00000 0 -5316458.211 11194692.221 22293201.824 10 0 60292 78300.00000 0 -6908218.335 8906134.153 22881130.799 10 0 60292 79200.00000 0 -8690459.673 6704436.948 23024642.176 10 0 60292 80100.00000 0 -10621123.261 4645227.143 22720969.629 10 0 60292 81000.00000 0 -12649136.191 2775847.410 21976027.227 10 0 60292 81900.00000 0 -14716389.321 1133586.293 20804293.618 10 0 60292 82800.00000 0 -16760025.761 -255659.434 19228530.858 10 0 60292 83700.00000 0 -18714945.269 -1378235.184 17279343.204 10 0 60292 84600.00000 0 -20516420.581 -2233057.474 14994584.136 10 0 60292 85500.00000 0 -22102716.792 -2831408.784 12418622.765 10 0 60293 0.00000 0 -23417604.444 -3196208.155 9601483.772 10 0 60293 900.00000 0 -24412661.980 -3360789.431 6597875.703 10 0 60293 1800.00000 0 -25049269.414 -3367239.156 3466130.171 10 0 60293 2700.00000 0 -25300211.877 -3264365.760 267067.506 10 0 60293 3600.00000 0 -25150823.837 -3105386.074 -2937185.272 10 0 60293 4500.00000 0 -24599626.476 -2945427.918 -6084402.357 10 0 60293 5400.00000 0 -23658431.221 -2838955.040 -9113468.895 10 0 60293 6300.00000 0 -22351904.890 -2837223.945 -11965568.725 10 0 60293 7200.00000 0 -20716614.626 -2985880.767 -14585326.710 10 0 60293 8100.00000 0 -18799592.541 -3322800.350 -16921883.328 10 0 60293 9000.00000 0 -16656480.111 -3876259.364 -18929880.684 10 0 60293 9900.00000 0 -14349329.778 -4663521.139 -20570340.929 10 0 60293 10800.00000 0 -11944155.411 -5689892.494 -21811420.420 10 0 60293 11700.00000 0 -9508333.458 -6948293.003 -22629025.406 10 0 60293 12600.00000 0 -7107962.661 -8419355.652 -23007277.769 10 0 60293 13500.00000 0 -4805291.655 -10072055.621 -22938822.198 10 0 60293 14400.00000 0 -2656320.741 -11864841.946 -22424969.125 10 0 60293 15300.00000 0 -708676.811 -13747225.750 -21475670.736 10 0 60293 16200.00000 0 1000151.052 -15661759.737 -20109330.433 10 0 60293 17100.00000 0 2444142.819 -17546327.186 -18352449.096 10 0 60293 18000.00000 0 3609591.015 -19336645.580 -16239114.553 10 0 60293 18900.00000 0 4495422.262 -20968880.798 -13810343.600 10 0 60293 19800.00000 0 5112984.357 -22382262.888 -11113288.760 10 0 60293 20700.00000 0 5485308.758 -23521593.979 -8200324.700 10 0 60293 21600.00000 0 5645880.352 -24339543.107 -5128031.753 10 0 60293 22500.00000 0 5636967.211 -24798631.382 -1956096.118 10 0 60293 23400.00000 0 5507581.621 -24872823.670 1253851.710 10 0 60293 24300.00000 0 5311159.387 -24548659.444 4439437.410 10 0 60293 25200.00000 0 5103056.378 -23825874.725 7538758.400 10 0 60293 26100.00000 0 4937969.071 -22717488.554 10491590.261 10 0 60293 27000.00000 0 4867389.063 -21249349.991 13240560.032 10 0 60293 27900.00000 0 4937200.016 -19459164.379 15732263.131 10 0 60293 28800.00000 0 5185519.386 -17395039.586 17918301.846 10 0 60293 29700.00000 0 5640876.763 -15113612.986 19756225.166 10 0 60293 30600.00000 0 6320806.361 -12677837.450 21210351.809 10 0 60293 31500.00000 0 7230913.569 -10154518.669 22252460.743 10 0 60293 32400.00000 0 8364455.451 -7611706.347 22862336.255 10 0 60293 33300.00000 0 9702453.497 -5116047.514 23028157.462 10 0 60293 34200.00000 0 11214334.551 -2730211.671 22746725.157 10 0 60293 35100.00000 0 12859073.732 -510494.130 22023521.967 10 0 60293 36000.00000 0 14586792.263 1495303.645 20872604.847 10 0 60293 36900.00000 0 16340743.969 3249629.481 19316332.043 10 0 60293 37800.00000 0 18059608.006 4726499.808 17384929.668 10 0 60293 38700.00000 0 19679992.443 5912329.045 15115906.035 10 0 60293 39600.00000 0 21139044.277 6806235.675 12553324.755 10 0 60293 40500.00000 0 22377056.855 7419813.492 9746950.360 10 0 60293 41400.00000 0 23339965.528 7776378.812 6751282.700 10 0 60293 42300.00000 0 23981626.754 7909726.439 3624498.756 10 0 60293 43200.00000 0 24265784.816 7862447.805 427322.321 10 0 60293 44100.00000 0 24167643.250 7683883.166 -2778156.322 10 0 60293 45000.00000 0 23674974.574 7427795.152 -5929687.546 10 0 60293 45900.00000 0 22788721.327 7149862.739 -8966072.559 10 0 60293 46800.00000 0 21523062.744 6905102.239 -11828352.766 10 0 60293 47700.00000 0 19904943.908 6745324.926 -14460954.909 10 0 60293 48600.00000 0 17973086.755 6716739.253 -16812769.557 10 0 60293 49500.00000 0 15776523.999 6857799.390 -18838142.057 10 0 60293 50400.00000 0 13372716.951 7197391.290 -20497756.791 10 0 60293 51300.00000 0 10825335.419 7753433.189 -21759397.958 10 0 60293 52200.00000 0 8201791.801 8531949.963 -22598572.527 10 0 60293 53100.00000 0 5570631.534 9526660.791 -22998983.721 10 0 60293 54000.00000 0 2998887.789 10719098.156 -22952846.282 10 0 60293 54900.00000 0 549509.619 12079253.943 -22461037.677 10 0 60293 55800.00000 0 -1721030.376 13566726.408 -21533082.439 10 0 60293 56700.00000 0 -3764850.344 15132320.875 -20186969.841 10 0 60293 57600.00000 0 -5544408.482 16720037.989 -18448808.145 10 0 60293 58500.00000 0 -7033815.446 18269367.040 -16352321.664 10 0 60293 59400.00000 0 -8219656.132 19717788.865 -13938199.849 10 0 60293 60300.00000 0 -9101287.481 21003383.869 -11253310.435 10 0 60293 61200.00000 0 -9690600.770 22067435.865 -8349791.464 10 0 60293 62100.00000 0 -10011259.306 22856922.332 -5284039.463 10 0 60293 63000.00000 0 -10097444.492 23326786.143 -2115613.298 10 0 60293 63900.00000 0 -9992163.990 23441892.723 1093924.871 10 0 60293 64800.00000 0 -9745194.234 23178589.648 4282208.698 10 0 60293 65700.00000 0 -9410745.120 22525802.410 7387283.046 10 0 60293 66600.00000 0 -9044946.402 21485619.528 10348811.468 10 0 60293 67500.00000 0 -8703262.944 20073341.788 13109251.715 10 0 60293 68400.00000 0 -8437948.855 18316992.980 15614976.017 10 0 60293 69300.00000 0 -8295648.800 16256312.213 17817313.981 10 0 60293 70200.00000 0 -8315248.361 13941269.657 19673497.791 10 0 60293 71100.00000 0 -8526064.677 11430167.435 21147491.438 10 0 60293 72000.00000 0 -8946454.019 8787404.699 22210688.167 10 0 60293 72900.00000 0 -9582895.322 6080999.713 22842463.039 10 0 60293 73800.00000 0 -10429588.566 3379971.647 23030570.350 10 0 60293 74700.00000 0 -11468585.256 751690.494 22771378.679 10 0 60293 75600.00000 0 -12670445.944 -1740695.453 22069939.354 10 0 60293 76500.00000 0 -13995397.693 -4040648.491 20939887.237 10 0 60293 77400.00000 0 -15394943.405 -6100348.406 19403175.801 10 0 60293 78300.00000 0 -16813856.057 -7882430.821 17489651.513 10 0 60293 79200.00000 0 -18192474.694 -9361285.792 15236475.494 10 0 60293 80100.00000 0 -19469206.217 -10523863.667 12687403.373 10 0 60293 81000.00000 0 -20583128.234 -11369955.786 9891936.917 10 0 60293 81900.00000 0 -21476583.775 -11911939.503 6904363.599 10 0 60293 82800.00000 0 -22097658.752 -12173999.362 3782702.600 10 0 60293 83700.00000 0 -22402437.785 -12190858.308 587577.643 10 0 60293 84600.00000 0 -22356943.119 -12006073.344 -2618961.331 10 0 60293 85500.00000 0 -21938674.602 -11669968.430 -5774644.481 10 0 60294 0.00000 0 -21137685.450 -11237292.732 -8818192.349 10 0 60294 900.00000 0 -19957147.503 -10764703.558 -11690507.884 10 0 60294 1800.00000 0 -18413382.738 -10308181.546 -14335822.657 10 0 60294 2700.00000 0 -16535357.741 -9920486.923 -16702780.294 10 0 60294 3600.00000 0 -14363662.647 -9648765.209 -18745431.972 10 0 60294 4500.00000 0 -11949016.377 -9532403.423 -20424126.431 10 0 60294 5400.00000 0 -9350360.016 -9601227.431 -21706277.295 10 0 60294 6300.00000 0 -6632617.200 -9874116.558 -22566993.229 10 0 60294 7200.00000 0 -3864214.091 -10358093.995 -22989559.158 10 0 60294 8100.00000 0 -1114461.303 -11047931.553 -22965759.639 10 0 60294 9000.00000 0 1549094.259 -11926285.789 -22496038.407 10 0 60294 9900.00000 0 4063238.516 -12964360.304 -21589491.107 10 0 60294 10800.00000 0 6371474.485 -14123067.040 -20263691.276 10 0 60294 11700.00000 0 8426123.594 -15354638.532 -18544352.639 10 0 60294 12600.00000 0 10190057.488 -16604624.062 -16464833.822 10 0 60294 13500.00000 0 11637989.161 -17814186.504 -14065494.527 10 0 60294 14400.00000 0 12757270.420 -18922603.775 -11392915.115 10 0 60294 15300.00000 0 13548163.215 -19869869.947 -8498994.228 10 0 60294 16200.00000 0 14023574.365 -20599286.549 -5439941.679 10 0 60294 17100.00000 0 14208265.670 -21059934.733 -2275185.983 10 0 60294 18000.00000 0 14137573.528 -21208923.648 933782.100 10 0 60294 18900.00000 0 13855692.877 -21013319.637 4124607.242 10 0 60294 19800.00000 0 13413598.717 -20451674.200 7235284.713 10 0 60294 20700.00000 0 12866693.863 -19515085.486 10205368.828 10 0 60294 21600.00000 0 12272283.079 -18207747.829 12977150.625 10 0 60294 22500.00000 0 11686981.066 -16546965.396 15496781.437 10 0 60294 23400.00000 0 11164164.410 -14562628.659 17715320.158 10 0 60294 24300.00000 0 10751575.565 -12296175.019 19589683.780 10 0 60294 25200.00000 0 10489180.308 -9799076.452 21083482.810 10 0 60294 26100.00000 0 10407369.198 -7130916.857 22167725.632 10 0 60294 27000.00000 0 10525578.930 -4357138.777 22821378.554 10 0 60294 27900.00000 0 10851391.619 -1546552.686 23031771.176 10 0 60294 28800.00000 0 11380149.963 1231288.089 22794839.639 10 0 60294 29700.00000 0 12095104.494 3908738.496 22115203.443 10 0 60294 30600.00000 0 12968086.884 6422629.585 21006074.558 10 0 60294 31500.00000 0 13960681.183 8716647.251 19489000.647 10 0 60294 32400.00000 0 15025844.074 10743423.993 17593447.271 10 0 60294 33300.00000 0 16109906.339 12466257.716 15356226.900 10 0 60294 34200.00000 0 17154871.657 13860387.053 12820785.514 10 0 60294 35100.00000 0 18100916.274 14913771.073 10036360.242 10 0 60294 36000.00000 0 18888984.457 15627341.945 7057024.088 10 0 60294 36900.00000 0 19463370.367 16014721.013 3940636.141 10 0 60294 37800.00000 0 19774177.416 16101411.314 747717.572 10 0 60294 38700.00000 0 19779551.099 15923501.455 -2459724.640 10 0 60294 39600.00000 0 19447590.703 15525936.377 -5619403.132 10 0 60294 40500.00000 0 18757858.743 14960428.727 -8669961.006 10 0 60294 41400.00000 0 17702423.862 14283099.656 -11552164.265 10 0 60294 42300.00000 0 16286392.562 13551949.228 -14210052.340 10 0 60294 43200.00000 0 14527906.644 12824263.605 -16592024.191 10 0 60294 44100.00000 0 12457605.639 12154068.739 -18651838.901 10 0 60294 45000.00000 0 10117575.943 11589738.085 -20349511.442 10 0 60294 45900.00000 0 7559829.748 11171855.218 -21652086.532 10 0 60294 46800.00000 0 4844376.376 10931421.292 -22534276.018 10 0 60294 47700.00000 0 2036965.519 10888482.732 -22978947.805 10 0 60294 48600.00000 0 -793404.626 11051236.793 -22977457.305 10 0 60294 49500.00000 0 -3577111.733 11415652.610 -22529815.268 10 0 60294 50400.00000 0 -6246558.093 11965623.788 -21644688.848 10 0 60294 51300.00000 0 -8738734.725 12673646.346 -20339235.848 10 0 60294 52200.00000 0 -10997595.231 13501993.888 -18638775.024 10 0 60294 53100.00000 0 -12976141.569 14404340.994 -16576298.448 10 0 60294 54000.00000 0 -14638135.758 15327766.962 -14191834.815 10 0 60294 54900.00000 0 -15959366.964 16215055.916 -11531675.473 10 0 60294 55800.00000 0 -16928421.775 17007196.607 -8647477.730 10 0 60294 56700.00000 0 -17546926.193 17645976.537 -5595262.476 10 0 60294 57600.00000 0 -17829249.920 18076560.835 -2434325.442 10 0 60294 58500.00000 0 -17801686.131 18249946.581 773916.630 10 0 60294 59400.00000 0 -17501142.028 18125188.393 3967122.224 10 0 60294 60300.00000 0 -16973396.146 17671300.542 7083239.955 10 0 60294 61200.00000 0 -16270996.716 16868754.451 10061717.956 10 0 60294 62100.00000 0 -15450890.546 15710507.491 12844683.668 10 0 60294 63000.00000 0 -14571883.210 14202518.819 15378070.661 10 0 60294 63900.00000 0 -13692038.313 12363729.632 17612670.192 10 0 60294 64800.00000 0 -12866125.994 10225507.825 19505086.993 10 0 60294 65700.00000 0 -12143228.502 7830579.481 21018580.799 10 0 60294 66600.00000 0 -11564603.789 5231491.140 22123777.545 10 0 60294 67500.00000 0 -11161897.011 2488666.304 22799236.845 10 0 60294 68400.00000 0 -10955774.935 -331863.583 23031865.218 10 0 60294 69300.00000 0 -10955040.424 -3160959.961 22817167.520 10 0 60294 70200.00000 0 -11156263.903 -5929006.619 22159332.063 10 0 60294 71100.00000 0 -11543947.038 -8568559.362 21071148.034 10 0 60294 72000.00000 0 -12091211.546 -11016906.627 19573756.846 10 0 60294 72900.00000 0 -12760984.088 -13218435.566 17696242.182 10 0 60294 73800.00000 0 -13507627.374 -15126706.104 15475066.380 10 0 60294 74700.00000 0 -14278948.860 -16706147.527 12953363.820 10 0 60294 75600.00000 0 -15018502.498 -17933307.839 10180104.633 10 0 60294 76500.00000 0 -15668086.518 -18797604.630 7209144.659 10 0 60294 77400.00000 0 -16170331.834 -19301546.986 4098179.922 10 0 60294 78300.00000 0 -16471271.643 -19460420.053 907625.859 10 0 60294 79200.00000 0 -16522783.453 -19301446.424 -2300556.844 10 0 60294 80100.00000 0 -16284799.946 -18862460.429 -5464066.740 10 0 60294 81000.00000 0 -15727194.787 -18190151.968 -8521472.721 10 0 60294 81900.00000 0 -14831263.131 -17337954.534 -11413407.896 10 0 60294 82800.00000 0 -13590733.616 -16363667.065 -14083722.697 10 0 60294 83700.00000 0 -12012268.401 -15326910.290 -16480574.685 10 0 60294 84600.00000 0 -10115429.271 -14286525.035 -18557433.855 10 0 60294 85500.00000 0 -7932110.293 -13298022.228 -20273984.039 10 0 60295 0.00000 0 -5505459.980 -12411191.942 -21596903.125 10 0 60295 900.00000 0 -2888335.605 -11667971.417 -22500508.010 10 0 60295 1800.00000 0 -141356.386 -11100662.581 -22967250.504 10 0 60295 2700.00000 0 2669368.762 -10730572.027 -22988057.379 10 0 60295 3600.00000 0 5474742.313 -10567131.476 -22562506.373 10 0 60295 4500.00000 0 8205306.366 -10607534.889 -21698835.673 10 0 60295 5400.00000 0 10793889.633 -10836907.391 -20413786.453 10 0 60295 6300.00000 0 13178164.148 -11228998.860 -18732281.259 10 0 60295 7200.00000 0 15303006.189 -11747373.032 -16686944.033 10 0 60295 8100.00000 0 17122563.927 -12347042.221 -14317470.551 10 0 60295 9000.00000 0 18601946.310 -12976478.891 -11669860.910 10 0 60295 9900.00000 0 19718463.261 -13579919.357 -8795528.495 10 0 60295 10800.00000 0 20462365.893 -14099862.351 -5750302.381 10 0 60295 11700.00000 0 20837056.312 -14479656.731 -2593342.351 10 0 60295 12600.00000 0 20858758.761 -14666068.611 614012.240 10 0 60295 13500.00000 0 20555666.547 -14611718.818 3809437.144 10 0 60295 14400.00000 0 19966601.315 -14277286.902 6930837.758 10 0 60295 15300.00000 0 19139241.829 -13633387.713 9917559.344 10 0 60295 16200.00000 0 18127997.619 -12662040.316 12711568.837 10 0 60295 17100.00000 0 16991617.748 -11357666.294 15258584.825 10 0 60295 18000.00000 0 15790636.081 -9727574.384 17509133.354 10 0 60295 18900.00000 0 14584761.090 -7791910.034 19419508.939 10 0 60295 19800.00000 0 13430320.339 -5583071.051 20952622.185 10 0 60295 20700.00000 0 12377867.209 -3144612.862 22078717.809 10 0 60295 21600.00000 0 11470050.328 -529688.261 22775949.549 10 0 60295 22500.00000 0 10739834.855 2200914.182 23030801.267 10 0 60295 23400.00000 0 10209149.837 4981052.142 22838346.553 10 0 60295 24300.00000 0 9888017.847 7741737.930 22202342.178 10 0 60295 25200.00000 0 9774202.825 10413769.817 21135153.825 10 0 60295 26100.00000 0 9853390.361 12930377.742 19657515.619 10 0 60295 27000.00000 0 10099892.318 15229774.270 17798128.011 10 0 60295 27900.00000 0 10477845.756 17257505.523 15593101.587 10 0 60295 28800.00000 0 10942855.402 18968504.966 13085257.246 10 0 60295 29700.00000 0 11444010.206 20328765.225 10323296.010 10 0 60295 30600.00000 0 11926188.744 21316558.880 7360854.218 10 0 60295 31500.00000 0 12332555.965 21923157.915 4255462.297 10 0 60295 32400.00000 0 12607145.542 22153022.429 1067427.264 10 0 60295 33300.00000 0 12697418.381 22023451.399 -2141339.277 10 0 60295 34200.00000 0 12556688.684 21563710.877 -5308524.612 10 0 60295 35100.00000 0 12146314.494 20813676.936 -8372626.190 10 0 60295 36000.00000 0 11437559.510 19822051.104 -11274146.864 10 0 60295 36900.00000 0 10413046.812 18644223.890 -13956750.534 10 0 60295 37800.00000 0 9067742.356 17339876.796 -16368355.615 10 0 60295 38700.00000 0 7409425.865 15970423.935 -18462145.035 10 0 60295 39600.00000 0 5458628.296 14596401.009 -20197473.291 10 0 60295 40500.00000 0 3248037.411 13274911.270 -21540653.235 10 0 60295 41400.00000 0 821395.155 12057235.511 -22465607.727 10 0 60295 42300.00000 0 -1768068.262 10986706.001 -22954373.931 10 0 60295 43200.00000 0 -4459599.485 10096933.051 -22997450.898 10 0 60295 44100.00000 0 -7187205.694 9410458.011 -22593983.986 10 0 60295 45000.00000 0 -9882162.957 8937888.637 -21751782.686 10 0 60295 45900.00000 0 -12475646.009 8677552.557 -20487171.426 10 0 60295 46800.00000 0 -14901371.107 8615682.943 -18824676.010 10 0 60295 47700.00000 0 -17098142.828 8727128.250 -16796551.324 10 0 60295 48600.00000 0 -19012199.491 8976555.896 -14442158.935 10 0 60295 49500.00000 0 -20599260.032 9320099.032 -11807206.101 10 0 60295 50400.00000 0 -21826187.313 9707376.795 -8942860.456 10 0 60295 51300.00000 0 -22672198.733 10083802.550 -5904757.223 10 0 60295 52200.00000 0 -23129573.755 10393082.327 -2751918.044 10 0 60295 53100.00000 0 -23203829.043 10579797.361 454397.470 10 0 60295 54000.00000 0 -22913354.197 10591960.942 3651884.848 10 0 60295 54900.00000 0 -22288523.887 10383440.650 6778408.947 10 0 60295 55800.00000 0 -21370324.216 9916142.698 9773214.982 10 0 60295 56700.00000 0 -20208551.708 9161865.078 12578112.322 10 0 60295 57600.00000 0 -18859661.291 8103740.274 15138607.586 10 0 60295 58500.00000 0 -17384354.359 6737205.615 17404964.606 10 0 60295 59400.00000 0 -15845008.795 5070459.422 19333170.567 10 0 60295 60300.00000 0 -14303059.198 3124382.669 20885789.629 10 0 60295 61200.00000 0 -12816437.438 931928.494 22032687.689 10 0 60295 62100.00000 0 -11437180.753 -1462995.948 22751614.633 10 0 60295 63000.00000 0 -10209307.300 -4007109.528 23028633.275 10 0 60295 63900.00000 0 -9167047.635 -6639734.127 22858387.093 10 0 60295 64800.00000 0 -8333505.479 -9295087.128 22244201.995 10 0 60295 65700.00000 0 -7719803.061 -11904794.923 21198020.365 10 0 60295 66600.00000 0 -7324745.988 -14400523.664 19740168.754 10 0 60295 67500.00000 0 -7135020.878 -16716618.657 17898963.646 10 0 60295 68400.00000 0 -7125916.634 -18792643.260 15710162.680 10 0 60295 69300.00000 0 -7262538.393 -20575712.230 13216271.684 10 0 60295 70200.00000 0 -7501462.415 -22022522.806 10465720.613 10 0 60295 71100.00000 0 -7792761.695 -23100999.324 7511924.034 10 0 60295 72000.00000 0 -8082316.347 -23791483.086 4412244.265 10 0 60295 72900.00000 0 -8314310.764 -24087418.172 1226877.178 10 0 60295 73800.00000 0 -8433811.535 -23995504.929 -1982317.598 10 0 60295 74700.00000 0 -8389316.640 -23535315.153 -5153019.117 10 0 60295 75600.00000 0 -8135167.522 -22738385.644 -8223656.535 10 0 60295 76500.00000 0 -7633721.454 -21646828.635 -11134605.681 10 0 60295 77400.00000 0 -6857191.666 -20311517.989 -13829347.176 10 0 60295 78300.00000 0 -5789076.771 -18789927.706 -16255563.480 10 0 60295 79200.00000 0 -4425118.312 -17143713.791 -18366153.502 10 0 60295 80100.00000 0 -2773745.169 -15436141.131 -20120145.193 10 0 60295 81000.00000 0 -855985.043 -13729463.245 -21483488.702 10 0 60295 81900.00000 0 1295154.430 -12082364.480 -22429715.092 10 0 60295 82800.00000 0 3635810.268 -10547571.415 -22940448.270 10 0 60295 83700.00000 0 6112848.722 -9169732.852 -23005760.608 10 0 60295 84600.00000 0 8665845.033 -7983656.453 -22624365.657 10 0 60295 85500.00000 0 11229377.075 -7012975.077 -21803644.345 99